Time,TemperatureF,DewpointF,PressureIn,WindDirection,WindDirectionDegrees,WindSpeedMPH,WindSpeedGustMPH,Humidity,HourlyPrecipIn,Conditions,Clouds,dailyrainin,SoftwareType,DateUTC
2013-03-19 00:02:00,15.0,10.0,-100.00,ESE,115,9.0,16.0,78,-99.99,,,-99.99,,2013-03-19 05:02:00,
2013-03-19 00:12:00,15.0,10.0,-100.00,ESE,115,9.0,16.0,78,-99.99,,,-99.99,,2013-03-19 05:12:00,
2013-03-19 00:43:00,15.0,9.0,-100.00,ESE,120,11.0,19.0,78,-99.99,,,-99.99,,2013-03-19 05:43:00,
2013-03-19 00:52:00,15.0,9.0,-100.00,ESE,120,11.0,19.0,78,-99.99,,,-99.99,,2013-03-19 05:52:00,
2013-03-19 01:02:00,15.0,9.0,-100.00,ESE,120,11.0,19.0,78,-99.99,,,-99.99,,2013-03-19 06:02:00,
2013-03-19 01:12:00,15.0,9.0,-100.00,ESE,120,11.0,19.0,78,-99.99,,,-99.99,,2013-03-19 06:12:00,
2013-03-19 01:20:00,15.0,8.0,-100.00,SE,125,9.0,21.0,74,-99.99,,,-99.99,,2013-03-19 06:20:00,
2013-03-19 01:42:00,15.0,8.0,-100.00,SE,125,9.0,21.0,74,-99.99,,,-99.99,,2013-03-19 06:42:00,
2013-03-19 01:52:00,15.0,8.0,-100.00,SE,125,9.0,21.0,74,-99.99,,,-99.99,,2013-03-19 06:52:00,
2013-03-19 02:02:00,15.0,8.0,-100.00,SE,125,9.0,21.0,74,-99.99,,,-99.99,,2013-03-19 07:02:00,
2013-03-19 02:12:00,15.0,8.0,-100.00,SE,125,9.0,21.0,74,-99.99,,,-99.99,,2013-03-19 07:12:00,
2013-03-19 02:20:00,15.0,8.0,-100.00,ESE,110,8.0,23.0,73,-99.99,,,-99.99,,2013-03-19 07:20:00,
2013-03-19 02:42:00,15.0,8.0,-100.00,ESE,110,8.0,23.0,73,-99.99,,,-99.99,,2013-03-19 07:42:00,
2013-03-19 02:53:00,15.0,8.0,-100.00,ESE,110,8.0,23.0,73,-99.99,,,-99.99,,2013-03-19 07:53:00,
2013-03-19 03:03:00,15.0,8.0,-100.00,ESE,110,8.0,23.0,73,-99.99,,,-99.99,,2013-03-19 08:03:00,
2013-03-19 03:12:00,15.0,8.0,-100.00,ESE,110,8.0,23.0,73,-99.99,,,-99.99,,2013-03-19 08:12:00,
2013-03-19 03:43:00,14.0,7.0,-100.00,SE,125,11.0,21.0,73,-99.99,,,-99.99,,2013-03-19 08:43:00,
2013-03-19 03:52:00,14.0,7.0,-100.00,SE,125,11.0,21.0,73,-99.99,,,-99.99,,2013-03-19 08:52:00,
2013-03-19 04:02:00,14.0,7.0,-100.00,SE,125,11.0,21.0,73,-99.99,,,-99.99,,2013-03-19 09:02:00,
2013-03-19 04:12:00,14.0,7.0,-100.00,SE,125,11.0,21.0,73,-99.99,,,-99.99,,2013-03-19 09:12:00,
2013-03-19 04:43:00,14.0,7.0,-100.00,SE,125,6.0,23.0,73,-99.99,,,-99.99,,2013-03-19 09:43:00,
2013-03-19 04:53:00,14.0,7.0,-100.00,SE,125,6.0,23.0,73,-99.99,,,-99.99,,2013-03-19 09:53:00,
2013-03-19 05:03:00,14.0,7.0,-100.00,SE,125,6.0,23.0,73,-99.99,,,-99.99,,2013-03-19 10:03:00,
2013-03-19 05:12:00,14.0,7.0,-100.00,SE,125,6.0,23.0,73,-99.99,,,-99.99,,2013-03-19 10:12:00,
2013-03-19 05:42:00,13.0,5.0,-100.00,SE,135,7.0,21.0,71,-99.99,,,-99.99,,2013-03-19 10:42:00,
2013-03-19 05:53:00,13.0,5.0,-100.00,SE,135,7.0,21.0,71,-99.99,,,-99.99,,2013-03-19 10:53:00,
2013-03-19 06:02:00,13.0,5.0,-100.00,SE,135,7.0,21.0,71,-99.99,,,-99.99,,2013-03-19 11:02:00,
2013-03-19 06:12:00,13.0,5.0,-100.00,SE,135,7.0,21.0,71,-99.99,,,-99.99,,2013-03-19 11:12:00,
2013-03-19 06:43:00,12.0,4.0,-100.00,SE,125,9.0,20.0,71,-99.99,,,-99.99,,2013-03-19 11:43:00,
2013-03-19 06:52:00,12.0,4.0,-100.00,SE,125,9.0,20.0,71,-99.99,,,-99.99,,2013-03-19 11:52:00,
2013-03-19 07:02:00,12.0,4.0,-100.00,SE,125,9.0,20.0,71,-99.99,,,-99.99,,2013-03-19 12:02:00,
2013-03-19 07:12:00,12.0,4.0,-100.00,SE,125,9.0,20.0,71,-99.99,,,-99.99,,2013-03-19 12:12:00,
2013-03-19 07:43:00,12.0,4.0,-100.00,ESE,120,6.0,19.0,70,-99.99,,,-99.99,,2013-03-19 12:43:00,
2013-03-19 07:52:00,12.0,4.0,-100.00,ESE,120,6.0,19.0,70,-99.99,,,-99.99,,2013-03-19 12:52:00,
2013-03-19 08:02:00,12.0,4.0,-100.00,ESE,120,6.0,19.0,70,-99.99,,,-99.99,,2013-03-19 13:02:00,
2013-03-19 08:12:00,12.0,4.0,-100.00,ESE,120,6.0,19.0,70,-99.99,,,-99.99,,2013-03-19 13:12:00,
2013-03-19 08:42:00,12.0,4.0,-100.00,SE,135,11.0,21.0,71,-99.99,,,-99.99,,2013-03-19 13:42:00,
2013-03-19 08:53:00,12.0,4.0,-100.00,SE,135,11.0,21.0,71,-99.99,,,-99.99,,2013-03-19 13:53:00,
2013-03-19 09:02:00,12.0,4.0,-100.00,SE,135,11.0,21.0,71,-99.99,,,-99.99,,2013-03-19 14:02:00,
2013-03-19 09:12:00,12.0,4.0,-100.00,SE,135,11.0,21.0,71,-99.99,,,-99.99,,2013-03-19 14:12:00,
2013-03-19 09:42:00,14.0,5.0,-100.00,SE,145,7.0,21.0,66,-99.99,,,-99.99,,2013-03-19 14:42:00,
2013-03-19 09:52:00,14.0,5.0,-100.00,SE,145,7.0,21.0,66,-99.99,,,-99.99,,2013-03-19 14:52:00,
2013-03-19 10:02:00,14.0,5.0,-100.00,SE,145,7.0,21.0,66,-99.99,,,-99.99,,2013-03-19 15:02:00,
2013-03-19 10:12:00,14.0,5.0,-100.00,SE,145,7.0,21.0,66,-99.99,,,-99.99,,2013-03-19 15:12:00,
2013-03-19 10:21:00,16.0,3.0,-100.00,SE,140,10.0,22.0,57,-99.99,,,-99.99,,2013-03-19 15:21:00,
2013-03-19 10:44:00,16.0,3.0,-100.00,SE,140,10.0,22.0,57,-99.99,,,-99.99,,2013-03-19 15:44:00,
2013-03-19 10:53:00,16.0,3.0,-100.00,SE,140,10.0,22.0,57,-99.99,,,-99.99,,2013-03-19 15:53:00,
2013-03-19 11:04:00,16.0,3.0,-100.00,SE,140,10.0,22.0,57,-99.99,,,-99.99,,2013-03-19 16:04:00,
2013-03-19 11:13:00,16.0,3.0,-100.00,SE,140,10.0,22.0,57,-99.99,,,-99.99,,2013-03-19 16:13:00,
2013-03-19 11:20:00,20.0,4.0,-100.00,SE,140,9.0,24.0,50,-99.99,,,-99.99,,2013-03-19 16:20:00,
2013-03-19 11:44:00,20.0,4.0,-100.00,SE,140,9.0,24.0,50,-99.99,,,-99.99,,2013-03-19 16:44:00,
2013-03-19 11:54:00,20.0,4.0,-100.00,SE,140,9.0,24.0,50,-99.99,,,-99.99,,2013-03-19 16:54:00,
2013-03-19 12:03:00,20.0,4.0,-100.00,SE,140,9.0,24.0,50,-99.99,,,-99.99,,2013-03-19 17:03:00,
2013-03-19 12:13:00,20.0,4.0,-100.00,SE,140,9.0,24.0,50,-99.99,,,-99.99,,2013-03-19 17:13:00,
2013-03-19 12:20:00,21.0,2.0,-100.00,SE,145,12.0,26.0,44,-99.99,,,-99.99,,2013-03-19 17:20:00,
2013-03-19 12:44:00,21.0,2.0,-100.00,SE,145,12.0,26.0,44,-99.99,,,-99.99,,2013-03-19 17:44:00,
2013-03-19 12:53:00,21.0,2.0,-100.00,SE,145,12.0,26.0,44,-99.99,,,-99.99,,2013-03-19 17:53:00,
2013-03-19 13:03:00,21.0,2.0,-100.00,SE,145,12.0,26.0,44,-99.99,,,-99.99,,2013-03-19 18:03:00,
2013-03-19 13:13:00,21.0,2.0,-100.00,SE,145,12.0,26.0,44,-99.99,,,-99.99,,2013-03-19 18:13:00,
2013-03-19 13:44:00,23.0,1.0,-100.00,SSE,160,10.0,24.0,38,-99.99,,,-99.99,,2013-03-19 18:44:00,
2013-03-19 13:53:00,23.0,1.0,-100.00,SSE,160,10.0,24.0,38,-99.99,,,-99.99,,2013-03-19 18:53:00,
2013-03-19 14:02:00,23.0,1.0,-100.00,SSE,160,10.0,24.0,38,-99.99,,,-99.99,,2013-03-19 19:02:00,
2013-03-19 14:12:00,23.0,1.0,-100.00,SSE,160,10.0,24.0,38,-99.99,,,-99.99,,2013-03-19 19:12:00,
2013-03-19 14:43:00,26.0,-1.0,-100.00,ESE,120,9.0,23.0,31,-99.99,,,-99.99,,2013-03-19 19:43:00,
2013-03-19 14:53:00,26.0,-1.0,-100.00,ESE,120,9.0,23.0,31,-99.99,,,-99.99,,2013-03-19 19:53:00,
2013-03-19 15:03:00,26.0,-1.0,-100.00,ESE,120,9.0,23.0,31,-99.99,,,-99.99,,2013-03-19 20:03:00,
2013-03-19 15:12:00,26.0,-1.0,-100.00,ESE,120,9.0,23.0,31,-99.99,,,-99.99,,2013-03-19 20:12:00,
2013-03-19 15:43:00,24.0,-3.0,-100.00,SSE,165,10.0,26.0,29,-99.99,,,-99.99,,2013-03-19 20:43:00,
2013-03-19 15:53:00,24.0,-3.0,-100.00,SSE,165,10.0,26.0,29,-99.99,,,-99.99,,2013-03-19 20:53:00,
2013-03-19 16:02:00,24.0,-3.0,-100.00,SSE,165,10.0,26.0,29,-99.99,,,-99.99,,2013-03-19 21:02:00,
2013-03-19 16:12:00,24.0,-3.0,-100.00,SSE,165,10.0,26.0,29,-99.99,,,-99.99,,2013-03-19 21:12:00,
2013-03-19 16:20:00,26.0,-2.0,-100.00,East,100,5.0,27.0,29,-99.99,,,-99.99,,2013-03-19 21:20:00,
2013-03-19 16:43:00,26.0,-2.0,-100.00,East,100,5.0,27.0,29,-99.99,,,-99.99,,2013-03-19 21:43:00,
2013-03-19 16:53:00,26.0,-2.0,-100.00,East,100,5.0,27.0,29,-99.99,,,-99.99,,2013-03-19 21:53:00,
2013-03-19 17:03:00,26.0,-2.0,-100.00,East,100,5.0,27.0,29,-99.99,,,-99.99,,2013-03-19 22:03:00,
2013-03-19 17:12:00,26.0,-2.0,-100.00,East,100,5.0,27.0,29,-99.99,,,-99.99,,2013-03-19 22:12:00,
2013-03-19 17:44:00,25.0,-4.0,-100.00,SSE,165,10.0,25.0,28,-99.99,,,-99.99,,2013-03-19 22:44:00,
2013-03-19 17:53:00,25.0,-4.0,-100.00,SSE,165,10.0,25.0,28,-99.99,,,-99.99,,2013-03-19 22:53:00,
2013-03-19 18:02:00,25.0,-4.0,-100.00,SSE,165,10.0,25.0,28,-99.99,,,-99.99,,2013-03-19 23:02:00,
2013-03-19 18:12:00,25.0,-4.0,-100.00,SSE,165,10.0,25.0,28,-99.99,,,-99.99,,2013-03-19 23:12:00,
2013-03-19 18:20:00,23.0,-4.0,-100.00,SE,140,7.0,23.0,30,-99.99,,,-99.99,,2013-03-19 23:20:00,
2013-03-19 18:43:00,23.0,-4.0,-100.00,SE,140,7.0,23.0,30,-99.99,,,-99.99,,2013-03-19 23:43:00,
2013-03-19 18:53:00,23.0,-4.0,-100.00,SE,140,7.0,23.0,30,-99.99,,,-99.99,,2013-03-19 23:53:00,
2013-03-19 19:03:00,23.0,-4.0,-100.00,SE,140,7.0,23.0,30,-99.99,,,-99.99,,2013-03-20 00:03:00,
2013-03-19 19:13:00,23.0,-4.0,-100.00,SE,140,7.0,23.0,30,-99.99,,,-99.99,,2013-03-20 00:13:00,
2013-03-19 19:43:00,21.0,-4.0,-100.00,ESE,120,9.0,22.0,32,-99.99,,,-99.99,,2013-03-20 00:43:00,
2013-03-19 19:52:00,21.0,-4.0,-100.00,ESE,120,9.0,22.0,32,-99.99,,,-99.99,,2013-03-20 00:52:00,
2013-03-19 20:03:00,21.0,-4.0,-100.00,ESE,120,9.0,22.0,32,-99.99,,,-99.99,,2013-03-20 01:03:00,
2013-03-19 20:12:00,21.0,-4.0,-100.00,ESE,120,9.0,22.0,32,-99.99,,,-99.99,,2013-03-20 01:12:00,
2013-03-19 20:20:00,20.0,-5.0,-100.00,SE,125,6.0,16.0,34,-99.99,,,-99.99,,2013-03-20 01:20:00,
2013-03-19 20:43:00,20.0,-5.0,-100.00,SE,125,6.0,16.0,34,-99.99,,,-99.99,,2013-03-20 01:43:00,
2013-03-19 20:53:00,20.0,-5.0,-100.00,SE,125,6.0,16.0,34,-99.99,,,-99.99,,2013-03-20 01:53:00,
2013-03-19 21:02:00,20.0,-5.0,-100.00,SE,125,6.0,16.0,34,-99.99,,,-99.99,,2013-03-20 02:02:00,
2013-03-19 21:12:00,20.0,-5.0,-100.00,SE,125,6.0,16.0,34,-99.99,,,-99.99,,2013-03-20 02:12:00,
2013-03-19 21:20:00,19.0,-4.0,-100.00,SE,135,6.0,17.0,36,-99.99,,,-99.99,,2013-03-20 02:20:00,
2013-03-19 21:43:00,19.0,-4.0,-100.00,SE,135,6.0,17.0,36,-99.99,,,-99.99,,2013-03-20 02:43:00,
2013-03-19 21:53:00,19.0,-4.0,-100.00,SE,135,6.0,17.0,36,-99.99,,,-99.99,,2013-03-20 02:53:00,
2013-03-19 22:02:00,19.0,-4.0,-100.00,SE,135,6.0,17.0,36,-99.99,,,-99.99,,2013-03-20 03:02:00,
2013-03-19 22:12:00,19.0,-4.0,-100.00,SE,135,6.0,17.0,36,-99.99,,,-99.99,,2013-03-20 03:12:00,
2013-03-19 22:43:00,17.0,-5.0,-100.00,SE,125,7.0,16.0,37,-99.99,,,-99.99,,2013-03-20 03:43:00,
2013-03-19 22:53:00,17.0,-5.0,-100.00,SE,125,7.0,16.0,37,-99.99,,,-99.99,,2013-03-20 03:53:00,
2013-03-19 23:03:00,17.0,-5.0,-100.00,SE,125,7.0,16.0,37,-99.99,,,-99.99,,2013-03-20 04:03:00,
2013-03-19 23:12:00,17.0,-5.0,-100.00,SE,125,7.0,16.0,37,-99.99,,,-99.99,,2013-03-20 04:12:00,
2013-03-19 23:43:00,16.0,-5.0,-100.00,SE,135,7.0,14.0,38,-99.99,,,-99.99,,2013-03-20 04:43:00,
2013-03-19 23:53:00,16.0,-5.0,-100.00,SE,135,7.0,14.0,38,-99.99,,,-99.99,,2013-03-20 04:53:00,